Theta_e
349 346 344 343 343 343 341 341 349 349 349 343 338 337 335 332 329 327 325 323 323 318
348 345 341 343 344 347 345 346 349 346 339 336 334 332 331 327 325 324 321 318 317 313
346 345 344 343 345 345 345 347 341 336 332 331 332 329 325 322 322 317 315 313 312 311
344 342 342 342 344 343 343 338 333 331 329 326 323 322 319 317 314 312 310 312 311 311
343 339 338 339 341 339 334 331 329 325 322 320 317 314 312 309 309 308 308 309 308 306
337 336 337 337 334 331 327 325 323 319 318 314 311 310 308 307 307 306 305 303 302 302
330 329 329 325 325 323 322 319 317 315 311 309 308 307 306 306 305 303 302 302 301 302
325 325 323 321 319 318 316 313 311 308 307 306 307 306 305 304 303 303 301 303 301 301
320 319 317 314 312 311 309 307 307 306 305 305 304 302 304 305 303 304 304 303 300 298
312 312 311 310 308 306 306 306 304 303 303 301 302 301 302 304 302 303 300 300 300 297
310 309 309 308 307 306 305 303 302 302 301 301 301 299 299 301 300 297 298 298 298 295
309 308 307 305 305 304 302 302 300 300 300 300 299 298 297 300 297 295 293 293 294 294
308 307 305 304 302 302 301 299 300 300 300 299 295 294 296 301 301 298 296 293 292 293
306 304 304 303 302 301 299 297 297 298 298 297 295 293 294 297 301 299 297 294 293 294
Wind_Speed
19 14 14 11 14 12 11 11 11 11 11 13 12 10 10 8 7 8 7 8 6 5
18 20 15 10 15 11 13 10 14 13 15 14 13 10 12 9 8 8 7 7 7 6
17 19 15 16 14 15 12 16 17 16 16 15 11 12 12 9 8 9 8 6 8 6
16 18 16 13 12 14 19 19 18 17 15 14 14 13 11 12 11 10 8 7 7 7
18 15 10 14 14 21 20 19 19 18 17 15 14 14 13 13 10 11 10 8 10 9
10 11 14 18 19 20 21 20 18 19 17 15 13 15 13 12 11 12 11 10 8 9
12 20 20 21 20 21 21 20 18 17 16 14 14 14 14 13 12 13 10 9 8 7
11 20 22 21 20 18 19 18 18 17 15 14 12 10 13 12 12 10 8 8 9 6
10 19 21 19 19 19 18 18 20 16 15 14 9 15 14 12 9 10 6 7 7 10
14 15 17 21 20 19 18 18 18 15 14 13 11 15 13 12 9 9 8 8 9 9
21 17 16 18 21 17 14 16 16 15 14 13 11 13 14 14 11 10 10 9 10 9
18 17 17 20 17 16 16 14 14 13 15 14 11 13 9 11 10 10 10 10 10 9
18 20 20 19 18 16 15 17 13 13 13 15 10 11 9 8 7 9 6 7 7 8
15 18 20 21 16 17 15 16 14 14 12 12 11 11 15 9 4 6 7 7 4 2
Wind_Direction
199 205 199 186 167 166 160 170 159 141 122 112 108 105 99 94 90 83 68 53 26 73
200 203 198 186 165 161 159 157 136 128 117 112 109 117 106 100 105 95 76 50 30 51
196 194 183 190 175 160 146 133 123 119 115 114 113 105 108 102 84 90 87 72 62 47
200 190 183 168 163 131 119 122 119 118 113 110 113 101 104 96 93 89 82 72 65 66
203 176 163 171 134 115 122 119 118 113 111 111 105 103 96 99 93 89 83 65 60 46
183 158 148 124 117 120 113 112 111 113 112 109 115 101 102 103 101 91 77 78 66 54
120 122 113 110 109 112 112 113 111 109 114 117 113 115 114 104 95 91 92 91 77 71
130 123 113 110 107 106 106 106 106 108 104 105 107 105 106 107 110 105 119 118 100 78
142 111 111 105 103 104 107 107 110 112 116 111 109 107 113 111 120 109 111 100 122 89
106 107 112 119 114 108 117 115 110 112 106 109 106 106 96 83 88 89 76 63 53 60
122 118 115 103 105 107 104 109 114 113 114 112 104 95 94 90 90 78 60 58 67 59
106 112 106 103 106 112 110 109 104 105 113 113 106 87 69 113 100 93 81 68 55 59
111 117 113 110 107 107 111 108 112 109 95 90 81 57 51 120 121 115 107 95 82 59
103 113 114 110 111 111 112 104 106 105 97 86 75 61 65 58 110 138 113 90 80 83